KG4QXL-2 Weather Reports


Display with metric or nautical units.
time (UTC)temp
F
wind
direction
speed
MPH
gust
MPH
rain 1hr
in
rain 24hr
in
rain mn
in
humidity
%
barometer
mb
20260504204517 75 0.0 0.0 0.00 0.00 0.00 37 1004.3
20260504203517 75 255 0.0 2.0 0.00 0.00 0.00 36 1004.3
20260504202517 76 351 0.0 1.0 0.00 0.00 0.00 36 1004.5
20260504201537 75 255 1.0 3.0 0.00 0.00 0.00 34 1004.5
20260504200517 75 266 1.0 2.0 0.00 0.00 0.00 34 1004.6
20260504195517 75 267 1.0 3.0 0.00 0.00 0.00 34 1004.7
20260504194517 74 266 0.0 2.0 0.00 0.00 0.00 35 1004.9
20260504193517 74 270 0.0 1.0 0.00 0.00 0.00 36 1004.9
20260504192517 74 338 0.0 2.0 0.00 0.00 0.00 37 1005.1
20260504191537 74 256 1.0 1.0 0.00 0.00 0.00 35 1005.3
20260504190537 75 253 1.0 2.0 0.00 0.00 0.00 36 1005.5
20260504185517 74 261 1.0 2.0 0.00 0.00 0.00 36 1005.6
20260504184537 74 251 1.0 2.0 0.00 0.00 0.00 36 1005.8
20260504183517 74 261 1.0 2.0 0.00 0.00 0.00 37 1006.0
20260504182517 73 220 0.0 1.0 0.00 0.00 0.00 39 1006.2
20260504181517 73 269 0.0 2.0 0.00 0.00 0.00 37 1006.4
20260504180516 73 271 1.0 2.0 0.00 0.00 0.00 37 1006.4
20260504175537 72 240 0.0 1.0 0.00 0.00 0.00 40 1006.4
20260504174516 73 23 1.0 3.0 0.00 0.00 0.00 39 1006.6
20260504173537 72 249 0.0 1.0 0.00 0.00 0.00 38 1006.8
20260504172517 71 126 1.0 3.0 0.00 0.00 0.00 39 1006.9
20260504171516 71 272 1.0 2.0 0.00 0.00 0.00 38 1007.1
20260504170517 71 265 1.0 3.0 0.00 0.00 0.00 38 1007.2
20260504150537 65 258 0.0 1.0 0.00 0.00 0.00 44 1008.4
20260504140517 60 0.0 0.0 0.00 0.00 0.00 55 1008.6
20260504130517 55 0.0 0.0 0.00 0.00 0.00 64 1009.2
20260504110517 47 0.0 0.0 0.00 0.00 0.00 82 1009.8
20260504100517 47 0.0 0.0 0.00 0.00 0.00 79 1009.7
20260504081517 47 0.0 0.0 0.00 0.00 0.00 86 1010.0
20260504080517 47 0.0 0.0 0.00 0.00 0.00 86 1010.0
20260504050517 45 0.0 0.0 0.00 0.00 0.00 87 1010.2
20260504045517 45 0.0 0.0 0.00 0.00 0.00 87 1010.1
20260504044517 45 0.0 0.0 0.00 0.00 0.00 87 1010.2
20260504043517 45 0.0 0.0 0.00 0.00 0.00 87 1010.1
20260504042517 44 0.0 0.0 0.00 0.00 0.00 88 1010.0
20260504041537 44 0.0 0.0 0.00 0.00 0.00 89 1009.9
20260504040517 44 0.0 0.0 0.00 0.00 0.00 88 1009.8
20260504035516 44 0.0 0.0 0.00 0.00 0.00 87 1010.1
20260504034537 44 0.0 0.0 0.00 0.00 0.00 87 1010.2
20260504033536 45 0.0 0.0 0.00 0.00 0.00 87 1010.1
20260504032516 45 0.0 0.0 0.00 0.00 0.00 86 1010.1
20260504031517 46 0.0 0.0 0.00 0.00 0.00 84 1009.9
20260504030517 46 0.0 0.0 0.00 0.00 0.00 83 1009.9
20260504025558 46 0.0 0.0 0.00 0.00 0.00 81 1009.8
20260504024517 47 0.0 0.0 0.00 0.00 0.00 80 1009.9
20260504023537 47 0.0 0.0 0.00 0.00 0.00 78 1009.8
20260504022517 48 0.0 0.0 0.00 0.00 0.00 78 1009.7
20260504021517 48 0.0 0.0 0.00 0.00 0.00 74 1009.6
20260504020516 48 0.0 0.0 0.00 0.00 0.00 74 1009.6
20260504015516 49 0.0 0.0 0.00 0.00 0.00 71 1009.5
20260504014517 49 0.0 0.0 0.00 0.00 0.00 72 1009.4
20260504013517 49 0.0 0.0 0.00 0.00 0.00 70 1009.5
20260504012517 50 0.0 0.0 0.00 0.00 0.00 69 1009.3
20260504011517 51 0.0 0.0 0.00 0.00 0.00 67 1009.1
20260504010517 51 0.0 0.0 0.00 0.00 0.00 66 1009.0
20260504005517 52 0.0 0.0 0.00 0.00 0.00 64 1009.1
20260504004517 52 0.0 0.0 0.00 0.00 0.00 60 1009.1
20260504003516 53 0.0 0.0 0.00 0.00 0.00 58 1009.1
20260504002517 54 0.0 0.0 0.00 0.00 0.00 56 1008.9
20260504001517 55 0.0 0.0 0.00 0.00 0.00 52 1008.9
20260504000517 56 0.0 0.0 0.00 0.00 0.00 52 1008.8
20260503235516 57 0.0 0.0 0.00 0.00 0.00 46 1008.7
20260503234517 57 0.0 0.0 0.00 0.00 0.00 44 1008.7
20260503233517 58 0.0 0.0 0.00 0.00 0.00 41 1008.6
20260503232557 59 0.0 0.0 0.00 0.00 0.00 41 1008.5
20260503231516 59 0.0 0.0 0.00 0.00 0.00 39 1008.5
20260503230517 60 279 0.0 1.0 0.00 0.00 0.00 37 1008.4
20260503225517 60 0.0 0.0 0.00 0.00 0.00 39 1008.5
20260503224517 60 0.0 0.0 0.00 0.00 0.00 38 1008.5
20260503223517 61 0.0 1.0 0.00 0.00 0.00 36 1008.5
20260503222557 61 259 0.0 1.0 0.00 0.00 0.00 36 1008.5
20260503221524 62 0.0 0.0 0.00 0.00 0.00 35 1008.5
20260503220537 62 281 0.0 1.0 0.00 0.00 0.00 34 1008.7
20260503215516 62 270 0.0 1.0 0.00 0.00 0.00 32 1008.6
20260503214516 62 258 1.0 2.0 0.00 0.00 0.00 33 1008.6
20260503213517 62 280 0.0 1.0 0.00 0.00 0.00 32 1008.7
20260503212517 62 269 1.0 2.0 0.00 0.00 0.00 32 1008.7
20260503211517 62 265 1.0 2.0 0.00 0.00 0.00 33 1008.6
20260503210517 62 257 1.0 2.0 0.00 0.00 0.00 32 1008.6
20260503205536 62 264 1.0 2.0 0.00 0.00 0.00 33 1008.8